Home   Weather   Fort Lauderdale   Past weeks

Flag for USA Past Weather in Fort Lauderdale, Florida, USA — Yesterday and Last 2 Weeks

Now
80 °F

More clouds than sun.


Feels Like: 85 °F
Forecast: 83 / 88 °F
Wind: 7 mph from North

Location: Fort Lauderdale / Hollywood International Airport

Current Time: Jul 20, 2017 at 4:55:54 pm

Latest Report: Jul 20, 2017 at 4:26 pm


Visibility: 10 mi

Pressure: 30.04 "Hg

Humidity: 85%

Dew Point: 75 °F

Location of Fort LauderdaleLocation

Past Weather in Fort Lauderdale — Graph

°F

Fort Lauderdale Temperature Yesterday

Maximum temperature yesterday: 89 °F (at 10:53 am)
Minimum temperature yesterday: 78 °F (at 2:53 am)
Average temperature yesterday: 82 °F

High & Low Weather Summary for the Past Weeks

 TemperatureHumidityPressure
High102 °F (Jul 17, 1:53 pm)100% (Jul 16, 10:07 am)30.15 "Hg (Jul 16, 10:07 am)
Low73 °F (Jul 12, 9:11 pm)42% (Jul 17, 1:53 pm)29.94 "Hg (Jul 16, 3:53 am)
Average84 °F77%30.06 "Hg
* Reported Jul 5 3:53 pm — Jul 20 3:29 pm, Fort Lauderdale. Weather by CustomWeather, © 2017

Note: Actual official high and low records may vary slightly from our data, if they occured in-between our weather recording intervals... More about our weather records

Advertising

Fort Lauderdale Weather History for the Previous 24 Hours

Scroll right to see more
 ConditionsComfort  
Time TempWeatherWind HumidityBarometerVisibility
3:29 pm
Thu, Jul 20
87 °FThunderstorms. Cloudy.7 mph69%30.05 "Hg10 mi
2:53 pm88 °FPartly sunny.14 mph67%30.05 "Hg10 mi
1:53 pm90 °FBroken clouds.14 mph63%30.06 "Hg10 mi
12:53 pm90 °FBroken clouds.8 mph63%30.08 "Hg10 mi
12:14 pm86 °FBroken clouds.10 mph80%30.10 "Hg10 mi
11:53 am85 °FPartly sunny.12 mph75%30.11 "Hg10 mi
11:39 am87 °FPartly sunny.12 mph72%30.11 "Hg10 mi
10:53 am89 °FBroken clouds.5 mph65%30.10 "Hg10 mi
9:53 am86 °FPartly sunny.No wind77%30.10 "Hg10 mi
8:53 am81 °FPartly sunny.No wind91%30.09 "Hg10 mi
7:53 am82 °FPartly sunny.3 mph85%30.07 "Hg10 mi
6:53 am82 °FScattered clouds.3 mph82%30.05 "Hg10 mi
5:53 am82 °FPassing clouds.3 mph85%30.04 "Hg10 mi
4:53 am80 °FPassing clouds.No wind90%30.04 "Hg10 mi
3:53 am82 °FPassing clouds.No wind85%30.03 "Hg10 mi
2:53 am82 °FPartly cloudy.5 mph82%30.03 "Hg10 mi
1:53 am82 °FPartly cloudy.7 mph85%30.06 "Hg10 mi
12:53 am82 °FPartly cloudy.5 mph85%30.09 "Hg10 mi
11:53 pm
Wed, Jul 19
81 °FMostly cloudy.6 mph85%30.10 "Hg10 mi
10:53 pm80 °FOvercast.No wind87%30.11 "Hg10 mi
9:53 pm79 °FMostly cloudy.No wind88%30.09 "Hg10 mi
8:53 pm79 °FLight rain. Overcast.No wind88%30.08 "Hg10 mi
7:53 pm78 °FLight rain. Cloudy.6 mph87%30.10 "Hg10 mi
7:28 pm79 °FCloudy.7 mph84%30.10 "Hg10 mi
6:27 pm81 °FThunderstorms. Partly sunny.12 mph79%30.07 "Hg10 mi
6:08 pm86 °FThunderstorms. Partly sunny.8 mph72%30.05 "Hg10 mi
5:53 pm86 °FPartly sunny.9 mph72%30.04 "Hg10 mi
4:53 pm86 °FPartly sunny.12 mph75%30.05 "Hg10 mi
Weather by CustomWeather, © 2017

See weather overviewHow to use our weather pages